Location: Narrabri
(30.3170°S, 149.7830°E)
Time: 16:58:53
(UTC+10:00)

Tiangong 1 - Visible Passes

Search period start: 25 June 2017 00:00
Search period end: 05 July 2017 00:00
Orbit: 321 x 344 km, 42.8° (Epoch: 24 June)

Date Brightness Start Highest point End Pass type
(mag) Time Alt. Az. Time Alt. Az. Time Alt. Az.
25 Jun 3.9 05:31:20 10° N 05:33:11 16° NE 05:35:04 10° E visible
26 Jun 1.4 05:49:52 12° NW 05:52:25 57° NE 05:55:15 10° ESE visible
27 Jun 1.4 06:09:36 14° W 06:11:47 39° SSW 06:14:32 10° SE visible
28 Jun 3.8 04:57:44 15° ESE 04:57:44 15° ESE 04:58:20 10° ESE visible
28 Jun 2.6 06:29:16 10° WSW 06:31:18 17° SSW 06:33:20 10° SSE visible
29 Jun 3.3 05:16:44 16° SE 05:16:44 16° SE 05:17:32 10° SE visible
30 Jun 3.3 05:35:30 14° S 05:35:30 14° S 05:36:16 10° SSE visible
01 Jul 3.4 05:54:04 10° S 05:54:04 10° S 05:54:13 10° S visible
